User: anonymous   Login
Location: Columbia
(38.9520°N, 92.3340°W)
Time: 05:17:36
(UTC-06:00)
Language:

Iridium 52 - Orbit

View from above orbital plane
View from above orbital plane
View from above satellite
View from above satellite

Ground track
Ground track

The orbit data is extracted from the following two-line orbital elements,

1 25169U 98010A   17052.45604036 -.00000034  00000-0 -19056-4 0  9998
2 25169  86.3948  38.7563 0002096  86.6044 273.5391 14.34214598995194
Epoch (UTC): 21 February 2017 10:56:41
Eccentricity: 0.0002096
inclination: 86.3948°
perigee height: 776 km
apogee height: 779 km
right ascension of ascending node: 38.7563°
argument of perigee: 86.6044°
revolutions per day: 14.34214598
mean anomaly at epoch: 273.5391°
orbit number at epoch: 99519

The dashed part of the orbit path shows where the satellite is in the earth's shadow,  

DLR